User: anonymous   Login
Location: Chandrammap?lem
(16.9200°N, 81.0051°E)
Time: 19:19:26
(UTC+00:00)
Language:

MOS 1-B Rocket - Orbit

View from above orbital plane
View from above orbital plane
View from above satellite
View from above satellite

Ground track
Ground track

The orbit data is extracted from the following two-line orbital elements,

1 20491U 90013D   24207.10256445  .00000805  00000-0  15735-2 0  9997
2 20491  99.0335 247.4101 0467627 342.5056  16.0403 13.03673646638845
Epoch (UTC): 25 July 2024 02:27:41
Eccentricity: 0.0467627
inclination: 99.0335°
perigee height: 891 km
apogee height: 1604 km
right ascension of ascending node: 247.4101°
argument of perigee: 342.5056°
revolutions per day: 13.03673646
mean anomaly at epoch: 16.0403°
orbit number at epoch: 63884

The dashed part of the orbit path shows where the satellite is in the earth's shadow,  

DLR